| time (UTC) | temp C | wind direction | speed KPH | gust KPH | rain 1hr cm | rain 24hr cm | rain mn cm | humidity % | barometer mb |
| 20260504223059 | 26 | 60 | 4.8 | 14.5 | 0.00 | 0.00 | 0.00 | 30 | 1005.5 |
| 20260504221558 | 26 | 274 | 4.8 | 16.1 | 0.00 | 0.00 | 0.00 | 29 | 1005.7 |
| 20260504220045 | 26 | 294 | 6.4 | 19.3 | 0.00 | 0.00 | 0.00 | 28 | 1005.9 |
| 20260504214542 | 26 | 319 | 8.0 | 17.7 | 0.00 | 0.00 | 0.00 | 31 | 1006.0 |
| 20260504213057 | 26 | 337 | 8.0 | 14.5 | 0.00 | 0.00 | 0.00 | 32 | 1006.2 |
| 20260504211541 | 26 | 80 | 0.0 | 16.1 | 0.00 | 0.00 | 0.00 | 30 | 1006.3 |
| 20260504210035 | 26 | 346 | 9.7 | 16.1 | 0.00 | 0.00 | 0.00 | 30 | 1006.4 |
| 20260504204532 | 25 | 257 | 4.8 | 14.5 | 0.00 | 0.00 | 0.00 | 32 | 1006.6 |
| 20260504203043 | 25 | 303 | 8.0 | 14.5 | 0.00 | 0.00 | 0.00 | 32 | 1006.8 |
| 20260504201528 | 25 | 355 | 4.8 | 11.3 | 0.00 | 0.00 | 0.00 | 33 | 1006.9 |
| 20260504200026 | 25 | 293 | 4.8 | 16.1 | 0.00 | 0.00 | 0.00 | 34 | 1007.0 |
| 20260504194531 | 25 | 265 | 6.4 | 14.5 | 0.00 | 0.00 | 0.00 | 36 | 1007.0 |
| 20260504193024 | 25 | 286 | 4.8 | 17.7 | 0.00 | 0.00 | 0.00 | 34 | 1007.1 |
| 20260504191532 | 24 | 284 | 3.2 | 12.9 | 0.00 | 0.00 | 0.00 | 37 | 1007.1 |
| 20260504190020 | 23 | 160 | 1.6 | 16.1 | 0.00 | 0.00 | 0.00 | 35 | 1007.3 |
| 20260504184519 | 23 | 259 | 1.6 | 12.9 | 0.00 | 0.00 | 0.00 | 38 | 1007.4 |
| 20260504183017 | 23 | 266 | 6.4 | 12.9 | 0.00 | 0.00 | 0.00 | 36 | 1007.5 |
| 20260504181518 | 23 | 225 | 6.4 | 12.9 | 0.00 | 0.00 | 0.00 | 37 | 1007.6 |
| 20260504180016 | 22 | 262 | 4.8 | 9.7 | 0.00 | 0.00 | 0.00 | 40 | 1007.7 |
| 20260504174512 | 22 | 272 | 6.4 | 14.5 | 0.00 | 0.00 | 0.00 | 38 | 1007.7 |
| 20260504173011 | 21 | 292 | 6.4 | 12.9 | 0.00 | 0.00 | 0.00 | 41 | 1007.7 |
| 20260504171608 | 21 | 262 | 3.2 | 11.3 | 0.00 | 0.00 | 0.00 | 41 | 1007.7 |
| 20260504081558 | 10 | 99 | 3.2 | 3.2 | 0.00 | 0.00 | 0.00 | 78 | 1007.4 |
| 20260504080114 | 11 | 79 | 1.6 | 4.8 | 0.00 | 0.00 | 0.00 | 77 | 1007.6 |
| 20260504044541 | 13 | 207 | 4.8 | 9.7 | 0.00 | 0.00 | 0.00 | 71 | 1007.6 |
| 20260504043038 | 13 | 204 | 4.8 | 8.0 | 0.00 | 0.00 | 0.00 | 72 | 1007.4 |
| 20260504041538 | 13 | 110 | 1.6 | 3.2 | 0.00 | 0.00 | 0.00 | 76 | 1007.3 |
| 20260504040059 | 14 | 110 | 1.6 | 6.4 | 0.00 | 0.00 | 0.00 | 72 | 1007.2 |
| 20260504034538 | 14 | 142 | 1.6 | 3.2 | 0.00 | 0.00 | 0.00 | 72 | 1007.1 |
| 20260504033037 | 16 | 143 | 0.0 | 1.6 | 0.00 | 0.00 | 0.00 | 67 | 1006.9 |
| 20260504031537 | 17 | 143 | 1.6 | 4.8 | 0.00 | 0.00 | 0.00 | 65 | 1006.8 |
| 20260504030035 | 21 | 113 | 1.6 | 4.8 | 0.00 | 0.00 | 0.00 | 50 | 1006.8 |
| 20260504024534 | 23 | 101 | 3.2 | 4.8 | 0.00 | 0.00 | 0.00 | 44 | 1006.8 |
| 20260504023033 | 24 | 356 | 0.0 | 3.2 | 0.00 | 0.00 | 0.00 | 40 | 1006.8 |
| 20260504021532 | 25 | 11 | 1.6 | 8.0 | 0.00 | 0.00 | 0.00 | 39 | 1006.9 |
| 20260504020030 | 25 | 18 | 4.8 | 8.0 | 0.00 | 0.00 | 0.00 | 37 | 1007.1 |
| 20260504014529 | 26 | 345 | 6.4 | 12.9 | 0.00 | 0.00 | 0.00 | 35 | 1007.2 |
| 20260504013028 | 26 | 18 | 8.0 | 12.9 | 0.00 | 0.00 | 0.00 | 34 | 1007.4 |
| 20260504011526 | 26 | 345 | 9.7 | 16.1 | 0.00 | 0.00 | 0.00 | 32 | 1007.5 |
| 20260504010025 | 26 | 7 | 11.3 | 17.7 | 0.00 | 0.00 | 0.00 | 28 | 1007.6 |
| 20260504004537 | 26 | 10 | 11.3 | 17.7 | 0.00 | 0.00 | 0.00 | 30 | 1007.8 |
| 20260504003021 | 26 | 50 | 12.9 | 17.7 | 0.00 | 0.00 | 0.00 | 30 | 1007.9 |
| 20260504001521 | 26 | 36 | 14.5 | 25.7 | 0.00 | 0.00 | 0.00 | 30 | 1008.1 |
| 20260504000020 | 26 | 4 | 14.5 | 22.5 | 0.00 | 0.00 | 0.00 | 27 | 1008.1 |
| 20260503234518 | 26 | 31 | 16.1 | 24.1 | 0.00 | 0.00 | 0.00 | 26 | 1008.4 |
| 20260503233020 | 26 | 11 | 16.1 | 25.7 | 0.00 | 0.00 | 0.00 | 28 | 1008.4 |
| 20260503231515 | 27 | 13 | 12.9 | 22.5 | 0.00 | 0.00 | 0.00 | 28 | 1008.6 |
| 20260503230014 | 26 | 20 | 16.1 | 25.7 | 0.00 | 0.00 | 0.00 | 28 | 1008.6 |
| 20260503224512 | 27 | 30 | 11.3 | 20.9 | 0.00 | 0.00 | 0.00 | 28 | 1008.8 |